GW7819 Weather Reports


time (UTC)temp
F
wind
direction
speed
knots
gust
knots
rain 1hr
in
rain 24hr
in
rain mn
in
humidity
%
barometer
mb
20260902131238 82 69 1.7 2.6 0.00 0.00 0.00 74 1022.2
20260902130737 83 96 0.9 2.6 0.00 0.00 0.00 73 1022.2
20260902130237 83 89 0.0 1.7 0.00 0.00 0.00 73 1022.2
20260902125737 82 110 0.0 1.7 0.00 0.00 0.00 75 1021.8
20260902125237 81 249 0.0 1.7 0.00 0.00 0.00 76 1021.8
20260902124736 78 38 1.7 1.7 0.00 0.00 0.00 81 1022.2
20260902124237 78 315 0.0 0.0 0.00 0.00 0.00 82 1022.2
20260902123737 78 164 0.0 0.9 0.00 0.00 0.00 81 1022.5
20260902123237 78 212 0.0 0.9 0.00 0.00 0.00 80 1022.2
20260902122737 78 135 0.0 0.0 0.00 0.00 0.00 81 1022.2
20260902122237 78 180 0.0 0.0 0.00 0.00 0.00 81 1022.2
20260902121737 77 135 0.0 0.0 0.00 0.00 0.00 82 1021.8
20260902121237 76 309 0.0 0.0 0.00 0.00 0.00 84 1021.8
20260902120736 75 309 0.0 0.0 0.00 0.00 0.00 87 1021.8
20260902120237 74 147 0.0 0.9 0.00 0.00 0.00 88 1021.8
20260902115737 73 217 0.0 0.9 0.00 0.00 0.00 89 1021.8
20260902115237 73 60 0.0 0.9 0.00 0.00 0.00 90 1021.8
20260902114737 72 50 0.0 0.9 0.00 0.00 0.00 92 1021.5
20260902114237 72 242 0.0 0.9 0.00 0.00 0.00 92 1021.5
20260902113737 72 207 0.0 0.9 0.00 0.00 0.00 91 1021.1
20260902113236 72 315 0.0 0.9 0.00 0.00 0.00 91 1021.1
20260902112737 72 229 0.0 0.9 0.00 0.00 0.00 90 1021.5
20260902112237 72 104 0.0 0.9 0.00 0.00 0.00 91 1021.1
20260902111737 72 55 0.0 1.7 0.00 0.00 0.00 91 1021.1
20260902111236 72 174 0.0 2.6 0.00 0.00 0.00 91 1021.5
20260902110737 72 160 1.7 2.6 0.00 0.00 0.00 90 1021.1
20260902110237 72 11 0.9 1.7 0.00 0.00 0.00 91 1021.1
20260902105737 71 22 1.7 1.7 0.00 0.00 0.00 92 1020.8
20260902105237 72 255 0.0 1.7 0.00 0.00 0.00 91 1020.8
20260902104738 72 327 0.0 0.9 0.00 0.00 0.00 92 1020.8
20260902104237 72 36 0.0 1.7 0.00 0.00 0.00 92 1020.8
20260902103737 72 271 0.0 1.7 0.00 0.00 0.00 91 1020.8
20260902103237 72 224 0.0 0.9 0.00 0.00 0.00 91 1020.8
20260902102736 72 44 0.0 1.7 0.00 0.00 0.00 90 1020.8
20260902102236 72 209 0.0 1.7 0.00 0.00 0.00 92 1020.8
20260902101738 71 44 0.0 0.9 0.00 0.00 0.00 92 1020.8
20260902101237 71 60 0.0 0.9 0.00 0.00 0.00 92 1020.8
20260902100737 71 190 0.0 0.9 0.00 0.00 0.00 92 1020.8
20260902100237 72 242 0.0 0.0 0.00 0.00 0.00 92 1020.4
20260902095737 72 297 0.0 0.9 0.00 0.00 0.00 91 1020.4
20260902095236 72 235 0.0 1.7 0.00 0.00 0.00 91 1020.4
20260902094737 72 230 0.0 2.6 0.00 0.00 0.00 91 1020.4
20260902094237 72 161 1.7 2.6 0.00 0.00 0.00 90 1020.4
20260902093737 73 181 0.9 2.6 0.00 0.00 0.00 89 1020.4
20260902093236 73 21 0.9 1.7 0.00 0.00 0.00 90 1020.4
20260902092737 72 1 1.7 1.7 0.00 0.00 0.00 91 1020.1
20260902092236 73 44 0.0 0.9 0.00 0.00 0.00 90 1020.4
20260902091736 73 135 0.0 0.9 0.00 0.00 0.00 89 1020.4
20260902091236 73 205 0.0 0.9 0.00 0.00 0.00 89 1020.1
20260902090736 73 229 0.0 0.9 0.00 0.00 0.00 89 1020.1
20260902090236 73 0.0 0.9 0.00 0.00 0.00 89 1020.1
20260902085737 73 212 0.0 1.7 0.00 0.00 0.00 89 1020.1
20260902085237 73 25 0.0 1.7 0.00 0.00 0.00 89 1020.1
20260902084737 73 33 0.9 1.7 0.00 0.00 0.00 89 1020.1
20260902084236 73 309 0.0 1.7 0.00 0.00 0.00 88 1020.1
20260902083736 73 333 0.0 2.6 0.00 0.00 0.00 89 1020.1
20260902083237 73 8 1.7 2.6 0.00 0.00 0.00 89 1020.1
20260902082737 73 357 1.7 1.7 0.00 0.00 0.00 90 1020.1
20260902082237 73 260 0.0 2.6 0.00 0.00 0.00 89 1020.1
20260902081737 73 183 0.0 2.6 0.00 0.00 0.00 90 1020.1
20260902081236 73 186 0.9 2.6 0.00 0.00 0.00 90 1020.1
20260902080737 73 11 1.7 2.6 0.00 0.00 0.00 90 1020.1
20260902080236 73 354 2.6 2.6 0.00 0.00 0.00 91 1019.7
20260902075736 73 6 0.0 0.0 0.00 0.00 0.00 91 1019.7
20260902075236 73 44 0.0 0.0 0.00 0.00 0.00 91 1019.7
20260902074737 73 173 0.0 0.0 0.00 0.00 0.00 90 1020.1
20260902074237 73 224 0.0 0.0 0.00 0.00 0.00 90 1020.1
20260902073737 73 224 0.0 0.9 0.00 0.00 0.00 89 1019.7
20260902073238 74 252 0.0 0.9 0.00 0.00 0.00 88 1019.7
20260902072737 74 98 0.0 0.9 0.00 0.00 0.00 88 1020.1
20260902072237 74 142 0.0 0.9 0.00 0.00 0.00 87 1019.7
20260902071737 75 168 0.9 0.9 0.00 0.00 0.00 86 1020.1
20260902071237 75 25 0.0 0.9 0.00 0.00 0.00 85 1019.7
20260902070737 75 89 0.0 0.9 0.00 0.00 0.00 84 1020.1
20260902070237 75 342 0.0 0.9 0.00 0.00 0.00 83 1020.1
20260902065736 76 47 0.0 0.9 0.00 0.00 0.00 82 1020.1
20260902065237 75 214 0.0 0.9 0.00 0.00 0.00 83 1019.7
20260902064737 74 147 0.0 0.9 0.00 0.00 0.00 87 1020.1
20260902064236 74 148 0.0 0.0 0.00 0.00 0.00 87 1020.1
20260902063736 74 309 0.0 0.0 0.00 0.00 0.00 87 1020.1
20260902063236 74 242 0.0 0.0 0.00 0.00 0.00 86 1020.1
20260902062736 74 147 0.0 0.0 0.00 0.00 0.00 85 1020.1
20260902062237 74 147 0.0 0.0 0.00 0.00 0.00 86 1020.1
20260902061737 74 129 0.0 0.0 0.00 0.00 0.00 86 1020.1
20260902061237 74 142 0.0 0.9 0.00 0.00 0.00 85 1020.1
20260902060736 75 214 0.9 0.9 0.00 0.00 0.00 85 1020.4
20260902060237 75 315 0.0 0.9 0.00 0.00 0.00 84 1020.1
20260902055737 75 285 0.0 1.7 0.00 0.00 0.00 85 1020.1
20260902055237 75 60 0.0 1.7 0.00 0.00 0.00 86 1020.1
20260902054737 74 53 0.0 0.9 0.00 0.00 0.00 86 1020.1
20260902054236 74 313 0.0 0.9 0.00 0.00 0.00 87 1020.4
20260902053737 74 81 0.0 0.9 0.00 0.00 0.00 86 1020.1
20260902053237 75 224 0.0 0.9 0.00 0.00 0.00 86 1020.1
20260902052737 75 98 0.0 0.0 0.00 0.00 0.00 85 1020.1
20260902052237 75 62 0.0 0.9 0.00 0.00 0.00 85 1020.1
20260902051737 75 89 0.0 0.9 0.00 0.00 0.00 85 1020.1
20260902051236 75 25 0.0 0.0 0.00 0.00 0.00 85 1020.1
20260902050737 75 44 0.0 0.0 0.00 0.00 0.00 84 1020.1
20260902050237 75 44 0.0 0.9 0.00 0.00 0.00 84 1020.4
20260902045736 75 160 0.0 0.9 0.00 0.00 0.00 85 1020.1
20260902045237 75 149 0.0 0.9 0.00 0.00 0.00 84 1020.4
20260902044737 75 212 0.0 0.9 0.00 0.00 0.00 84 1020.1
20260902044236 76 255 0.0 0.9 0.00 0.00 0.00 83 1020.1
20260902043736 76 257 0.0 2.6 0.00 0.00 0.00 83 1020.4
20260902043236 76 242 0.0 2.6 0.00 0.00 0.00 84 1020.1
20260902042737 76 108 0.9 1.7 0.00 0.00 0.00 84 1020.1
20260902042236 76 107 0.9 0.9 0.00 0.00 0.00 83 1020.4
20260902041737 76 50 0.0 0.9 0.00 0.00 0.00 83 1020.4
20260902041236 77 224 0.0 2.6 0.00 0.00 0.00 82 1020.4
20260902040737 77 84 0.0 2.6 0.00 0.00 0.00 81 1020.8
20260902040237 77 161 1.7 1.7 0.00 0.00 0.00 81 1020.8
20260902035736 78 122 0.0 0.9 0.00 0.00 0.00 79 1020.4
20260902035236 78 336 0.0 0.9 0.00 0.00 0.00 79 1020.4
20260902034736 78 44 0.0 1.7 0.00 0.00 0.00 80 1020.4
20260902034237 77 22 0.0 1.7 0.00 0.00 0.00 82 1020.4
20260902033737 77 355 0.9 0.9 0.00 0.00 0.00 81 1020.8
20260902033236 77 37 0.0 0.9 0.00 0.00 0.00 80 1020.4
20260902032736 77 25 0.0 0.9 0.00 0.00 0.00 80 1020.8
20260902032237 78 230 0.0 1.7 0.00 0.00 0.00 78 1020.4
20260902031737 78 224 0.0 1.7 0.00 0.00 0.00 78 1020.8
20260902031237 79 172 1.7 1.7 0.00 0.00 0.00 76 1020.4
20260902030737 79 150 0.0 1.7 0.00 0.00 0.00 76 1020.4
20260902030237 80 343 0.0 1.7 0.00 0.00 0.00 76 1020.4
20260902025736 80 115 0.0 0.9 0.00 0.00 0.00 75 1020.4
20260902025236 80 135 0.0 1.7 0.00 0.00 0.00 75 1020.4
20260902024737 80 158 0.0 1.7 0.00 0.00 0.00 74 1020.4
20260902024237 80 15 0.0 0.9 0.00 0.00 0.00 72 1020.8
20260902023736 81 29 0.0 0.9 0.00 0.00 0.00 69 1020.1
20260902023236 81 217 0.0 0.9 0.00 0.00 0.00 69 1020.4
20260902022736 81 284 0.0 0.9 0.00 0.00 0.00 68 1020.4
20260902022237 81 29 0.0 1.7 0.00 0.00 0.00 67 1020.4
20260902021737 80 25 0.0 1.7 0.00 0.00 0.00 69 1020.1
20260902021237 80 38 0.9 1.7 0.00 0.00 0.00 70 1020.4
20260902020736 81 217 0.0 1.7 0.00 0.00 0.00 70 1020.4
20260902020236 81 135 0.0 1.7 0.00 0.00 0.00 70 1020.1
20260902015737 81 357 0.0 0.9 0.00 0.00 0.00 71 1020.4
20260902015236 81 315 0.0 1.7 0.00 0.00 0.00 71 1020.1
20260902014737 81 44 0.0 1.7 0.00 0.00 0.00 71 1020.1
20260902014237 81 47 0.0 0.9 0.00 0.00 0.00 70 1020.1
20260902013736 81 205 0.0 0.9 0.00 0.00 0.00 70 1020.1
20260902013237 81 139 0.0 0.9 0.00 0.00 0.00 71 1020.1
20260902012736 81 0.0 0.9 0.00 0.00 0.00 70 1020.1
20260902012236 81 135 0.0 0.0 0.00 0.00 0.00 70 1020.1
20260902011737 82 322 0.0 0.0 0.00 0.00 0.00 71 1020.1
20260902011236 82 322 0.0 0.9 0.00 0.00 0.00 72 1019.7
20260902010737 82 75 0.0 0.9 0.00 0.00 0.00 70 1019.7
20260902010237 83 118 0.0 0.9 0.00 0.00 0.00 69 1019.7
20260902005736 83 309 0.0 0.9 0.00 0.00 0.00 68 1019.7
20260902005236 84 130 0.0 0.9 0.00 0.00 0.00 66 1019.7
20260902004736 84 142 0.0 0.9 0.00 0.00 0.00 64 1019.7
20260902004236 84 129 0.0 0.9 0.00 0.00 0.00 63 1019.4
20260902003736 85 255 0.0 0.9 0.00 0.00 0.00 63 1019.7
20260902003236 85 228 0.0 0.0 0.00 0.00 0.00 62 1019.7
20260902002736 86 240 0.0 0.9 0.00 0.00 0.00 62 1019.7
20260902002236 87 243 0.0 1.7 0.00 0.00 0.00 60 1019.7
20260902001736 87 103 0.0 1.7 0.00 0.00 0.00 59 1019.7
20260902001236 87 322 0.0 0.9 0.00 0.00 0.00 56 1019.7
20260902000737 88 135 0.0 0.9 0.00 0.00 0.00 55 1019.4
20260902000236 88 224 0.0 0.9 0.00 0.00 0.00 54 1019.7
20260901235736 89 224 0.0 0.9 0.00 0.00 0.00 54 1019.7
20260901235236 89 55 0.0 0.9 0.00 0.00 0.00 54 1019.7
20260901234736 89 32 0.0 0.9 0.00 0.00 0.00 53 1019.7
20260901234236 90 333 0.0 2.6 0.00 0.00 0.00 53 1019.4
20260901233737 90 315 0.0 2.6 0.00 0.00 0.00 52 1019.7
20260901233236 90 191 1.7 2.6 0.00 0.00 0.00 50 1019.7
20260901232736 91 193 1.7 3.5 0.00 0.00 0.00 49 1019.7
20260901232237 91 135 2.6 4.3 0.00 0.00 0.00 47 1020.1
20260901231737 91 118 1.7 5.2 0.00 0.00 0.00 46 1020.1
20260901231236 91 159 2.6 5.2 0.00 0.00 0.00 47 1019.7
20260901230737 91 115 3.5 5.2 0.00 0.00 0.00 47 1019.7
20260901230236 91 108 2.6 5.2 0.00 0.00 0.00 46 1019.7
20260901225736 91 104 2.6 5.2 0.00 0.00 0.00 47 1020.1
20260901225236 91 129 3.5 5.2 0.00 0.00 0.00 47 1019.7
20260901224737 92 138 2.6 5.2 0.00 0.00 0.00 47 1020.1
20260901224236 92 141 2.6 5.2 0.00 0.00 0.00 47 1020.1
20260901223736 92 102 2.6 5.2 0.00 0.00 0.00 46 1020.1
20260901223237 92 183 1.7 5.2 0.00 0.00 0.00 47 1020.1
20260901222737 92 118 3.5 5.2 0.00 0.00 0.00 47 1020.1
20260901222236 92 112 4.3 5.2 0.00 0.00 0.00 47 1019.7
20260901221737 92 100 2.6 4.3 0.00 0.00 0.00 46 1020.1
20260901221236 92 42 1.7 4.3 0.00 0.00 0.00 47 1019.7
20260901220737 92 102 1.7 5.2 0.00 0.00 0.00 46 1019.7
20260901220236 92 14 1.7 5.2 0.00 0.00 0.00 46 1020.1
20260901215737 92 14 0.0 4.3 0.00 0.00 0.00 43 1019.7
20260901215236 93 131 4.3 4.3 0.00 0.00 0.00 44 1019.7
20260901214737 93 85 0.0 2.6 0.00 0.00 0.00 44 1019.7
20260901214237 93 280 1.7 3.5 0.00 0.00 0.00 44 1020.1
20260901213736 93 248 1.7 4.3 0.00 0.00 0.00 44 1019.7
20260901213236 92 189 3.5 5.2 0.00 0.00 0.00 45 1020.1
20260901212736 92 189 1.7 5.2 0.00 0.00 0.00 45 1020.1
20260901212237 91 239 3.5 4.3 0.00 0.00 0.00 48 1019.7
20260901211714 90 184 1.7 4.3 0.00 0.00 0.00 48 1020.1
20260901211213 91 171 2.6 4.3 0.00 0.00 0.00 48 1020.1
20260901210713 91 184 2.6 3.5 0.00 0.00 0.00 48 1019.7
20260901210215 91 22 0.0 3.5 0.00 0.00 0.00 46 1020.1
20260901205713 91 122 1.7 3.5 0.00 0.00 0.00 45 1020.1
20260901205215 91 31 2.6 3.5 0.00 0.00 0.00 46 1020.1
20260901204713 91 345 2.6 4.3 0.00 0.00 0.00 46 1020.1
20260901204215 91 8 3.5 4.3 0.00 0.00 0.00 48 1020.1
20260901203715 90 2.6 3.5 0.00 0.00 0.00 47 1020.1
20260901203214 90 65 0.0 1.7 0.00 0.00 0.00 49 1020.1
20260901202715 90 217 0.0 1.7 0.00 0.00 0.00 49 1020.1
20260901202215 90 100 0.9 1.7 0.00 0.00 0.00 47 1020.4
20260901201716 91 113 0.0 3.5 0.00 0.00 0.00 49 1020.4
20260901201216 91 156 0.0 4.3 0.00 0.00 0.00 48 1020.4
20260901200716 91 54 2.6 4.3 0.00 0.00 0.00 48 1020.4
20260901200216 91 86 0.9 3.5 0.00 0.00 0.00 48 1020.4
20260901195714 91 44 0.0 5.2 0.00 0.00 0.00 47 1020.8
20260901195213 91 14 1.7 5.2 0.00 0.00 0.00 46 1020.4
20260901194715 91 39 5.2 5.2 0.00 0.00 0.00 46 1020.4
20260901194214 91 33 3.5 3.5 0.00 0.00 0.00 50 1020.8
20260901193715 91 322 0.0 2.6 0.00 0.00 0.00 47 1020.4
20260901193214 91 47 0.9 2.6 0.00 0.00 0.00 48 1020.8
20260901192715 90 329 0.0 2.6 0.00 0.00 0.00 49 1020.8
20260901192214 91 214 0.0 4.3 0.00 0.00 0.00 47 1020.8
20260901191716 91 39 2.6 6.1 0.00 0.00 0.00 46 1020.8
20260901191216 91 1 3.5 6.1 0.00 0.00 0.00 46 1020.8
20260901190715 91 15 1.7 5.2 0.00 0.00 0.00 46 1020.8
20260901190214 90 343 1.7 4.3 0.00 0.00 0.00 47 1021.1
20260901185714 90 316 2.6 5.2 0.00 0.00 0.00 47 1020.8
20260901185214 90 23 2.6 5.2 0.00 0.00 0.00 48 1021.1
20260901184714 91 54 5.2 6.1 0.00 0.00 0.00 47 1021.1
20260901184214 91 22 5.2 7.0 0.00 0.00 0.00 48 1021.5
20260901183714 90 223 5.2 7.0 0.00 0.00 0.00 48 1021.1
20260901183213 91 257 3.5 7.0 0.00 0.00 0.00 47 1021.1
20260901182713 91 315 5.2 5.2 0.00 0.00 0.00 47 1021.5
20260901182214 90 295 3.5 7.8 0.00 0.00 0.00 47 1021.5
20260901181713 91 344 5.2 7.8 0.00 0.00 0.00 46 1021.5
20260901181213 90 10 2.6 5.2 0.00 0.00 0.00 48 1021.5
20260901180713 90 339 2.6 6.1 0.00 0.00 0.00 48 1021.5
20260901180214 91 18 2.6 6.1 0.00 0.00 0.00 48 1021.8
20260901175713 90 353 3.5 6.1 0.00 0.00 0.00 48 1021.8
20260901175213 89 37 2.6 6.1 0.00 0.00 0.00 50 1022.2
20260901174712 89 82 4.3 5.2 0.00 0.00 0.00 52 1021.5
20260901174213 89 244 0.0 1.7 0.00 0.00 0.00 50 1021.8
20260901173713 90 26 1.7 3.5 0.00 0.00 0.00 50 1021.8
20260901173215 90 234 1.7 4.3 0.00 0.00 0.00 49 1022.2
20260901172713 90 296 3.5 4.3 0.00 0.00 0.00 50 1022.2
20260901172214 90 21 0.9 7.0 0.00 0.00 0.00 49 1021.8
20260901171714 90 236 1.7 7.0 0.00 0.00 0.00 50 1022.5
20260901171214 90 319 1.7 5.2 0.00 0.00 0.00 50 1022.5
20260901170714 90 257 1.7 6.1 0.00 0.00 0.00 49 1022.5
20260901170213 90 338 3.5 6.1 0.00 0.00 0.00 50 1022.5
20260901165713 89 336 1.7 7.0 0.00 0.00 0.00 52 1022.5
20260901165214 89 266 5.2 7.8 0.00 0.00 0.00 52 1022.5
20260901164714 89 312 2.6 7.8 0.00 0.00 0.00 53 1022.5
20260901164214 88 325 6.1 7.8 0.00 0.00 0.00 56 1022.2
20260901163713 88 324 3.5 10.4 0.00 0.00 0.00 56 1022.2
20260901163214 89 315 4.3 10.4 0.00 0.00 0.00 54 1022.5
20260901162713 89 284 6.1 7.8 0.00 0.00 0.00 54 1022.5
20260901162213 90 277 4.3 7.8 0.00 0.00 0.00 56 1022.5
20260901161718 88 324 2.6 6.1 0.00 0.00 0.00 58 1022.9
20260901161214 89 287 4.3 6.1 0.00 0.00 0.00 57 1022.9
20260901160719 88 327 2.6 6.1 0.00 0.00 0.00 57 1022.9
20260901160214 88 314 4.3 7.8 0.00 0.00 0.00 55 1022.9
20260901155713 89 258 0.0 7.8 0.00 0.00 0.00 55 1022.9
20260901155214 88 237 4.3 7.8 0.00 0.00 0.00 54 1022.9
20260901154714 88 155 0.0 7.0 0.00 0.00 0.00 55 1022.5
20260901154214 88 221 3.5 7.0 0.00 0.00 0.00 55 1022.9
20260901153713 89 229 3.5 6.1 0.00 0.00 0.00 55 1022.9
20260901153214 88 253 3.5 6.1 0.00 0.00 0.00 55 1022.9
20260901152713 88 269 1.7 4.3 0.00 0.00 0.00 57 1022.9
20260901152214 88 273 1.7 4.3 0.00 0.00 0.00 57 1022.9
20260901151713 87 217 3.5 5.2 0.00 0.00 0.00 58 1022.9
20260901151213 87 225 2.6 6.1 0.00 0.00 0.00 58 1022.9
20260901150714 87 250 1.7 6.1 0.00 0.00 0.00 57 1022.5
20260901150213 87 273 2.6 6.1 0.00 0.00 0.00 57 1023.2
20260901145714 87 278 2.6 6.1 0.00 0.00 0.00 57 1022.9
20260901145213 88 275 1.7 3.5 0.00 0.00 0.00 59 1022.5
20260901144713 87 129 0.0 3.5 0.00 0.00 0.00 62 1022.9
20260901144214 87 241 1.7 3.5 0.00 0.00 0.00 61 1022.5
20260901143714 87 281 1.7 3.5 0.00 0.00 0.00 63 1022.5
20260901143213 86 229 1.7 3.5 0.00 0.00 0.00 63 1022.5
20260901142713 86 282 1.7 2.6 0.00 0.00 0.00 64 1022.9
20260901142214 86 274 1.7 2.6 0.00 0.00 0.00 65 1022.5
20260901141713 86 271 1.7 2.6 0.00 0.00 0.00 65 1022.5
20260901141215 85 280 1.7 2.6 0.00 0.00 0.00 65 1022.5
20260901140714 85 166 0.0 3.5 0.00 0.00 0.00 65 1022.9
20260901140213 85 100 0.0 3.5 0.00 0.00 0.00 67 1022.9
20260901135714 85 15 0.0 2.6 0.00 0.00 0.00 69 1022.5
20260901135214 84 151 0.0 2.6 0.00 0.00 0.00 69 1022.5
20260901134714 84 135 0.0 1.7 0.00 0.00 0.00 70 1022.9
20260901134213 84 77 0.0 1.7 0.00 0.00 0.00 71 1022.5
20260901133713 83 164 0.0 1.7 0.00 0.00 0.00 73 1022.9
20260901133214 82 177 0.0 1.7 0.00 0.00 0.00 72 1022.5
20260901132713 82 213 0.9 3.5 0.00 0.00 0.00 74 1022.5
20260901132213 81 256 0.0 3.5 0.00 0.00 0.00 76 1022.9
20260901131714 81 229 1.7 3.5 0.00 0.00 0.00 78 1022.9